Weather History for KONL - November, 2012

Change the Weather History Date:

Sunday, November 18, 2012

  Actual Average Record
Temperature  
Mean Temperature 48 °F -  
Max Temperature 63 °F 43 °F 64 °F (1976)
Min Temperature 34 °F 23 °F 0 °F (2014)
Degree Days  
Heating Degree Days 16    
Moisture  
Dew Point 35 °F    
Average Humidity 69    
Maximum Humidity 89    
Minimum Humidity 37    
Precipitation  
Precipitation 0.00 in - - ()
Sea Level Pressure  
Sea Level Pressure 29.96 in    
Wind  
Wind Speed 9 mph (South)    
Max Wind Speed 18 mph    
Max Gust Speed 24 mph    
Visibility 10 miles    
Events      
Averages and records for this station are not official NWS values.
T = Trace of Precipitation, MM = Missing Value Source: NWS Daily Summary

Daily Weather History Graph

Daily Weather History Graph

Search for Another Location

Airport or City:

Trip Planner

Search our weather history database for the weather conditions in past years. The results will help you decide how hot, cold, wet, or windy it might be!

Date:

Astronomy

Nov. 18, 2012 Rise Set
Actual Time 7:30 AM CST 5:09 PM CST
Civil Twilight 6:59 AM CST 5:40 PM CST
Nautical Twilight 6:25 AM CST 6:14 PM CST
Astronomical Twilight 5:51 AM CST 6:47 PM CST
Moon 11:56 AM CST (11/18) 10:32 PM CST (11/18)
Length of Visible Light 10h 40m
Length of Day
9h 39m
Waxing Crescent, 30% of the Moon is Illuminated
Nov 18
Waxing Crescent
Nov 20
First Quarter
Nov 28
Full
Dec 6
Last Quarter
Dec 13
New

Hourly Weather History & Observations

Time (CST) Temp. Windchill Dew Point Humidity Pressure Visibility Wind Dir Wind Speed Gust Speed Precip Events Conditions
12:15 AM 38.8 °F 33.8 °F 32.4 °F 78% 30.02 in 10.0 mi South 6.9 mph - N/A   Clear
12:35 AM 39.0 °F 34.0 °F 32.5 °F 78% 30.02 in 10.0 mi South 6.9 mph - N/A   Clear
12:55 AM 39.2 °F 33.6 °F 32.5 °F 77% 30.02 in 10.0 mi South 8.1 mph - N/A   Clear
1:15 AM 38.1 °F 32.9 °F 32.2 °F 79% 30.02 in 10.0 mi South 6.9 mph - N/A   Clear
1:35 AM 37.4 °F 32.8 °F 32.0 °F 81% 30.01 in 10.0 mi South 5.8 mph - N/A   Clear
1:55 AM 36.1 °F 30.6 °F 32.0 °F 85% 30.01 in 10.0 mi South 6.9 mph - N/A   Clear
2:15 AM 37.0 °F 32.4 °F 32.4 °F 83% 30.02 in 10.0 mi South 5.8 mph - N/A   Clear
2:35 AM 35.6 °F 29.9 °F 32.0 °F 87% 30.02 in 10.0 mi South 6.9 mph - N/A   Clear
2:55 AM 35.6 °F 29.9 °F 32.0 °F 87% 30.02 in 10.0 mi SSE 6.9 mph - N/A   Clear
3:15 AM 34.9 °F 29.0 °F 31.8 °F 89% 30.02 in 10.0 mi SSE 6.9 mph - N/A   Clear
3:35 AM 35.1 °F 29.3 °F 32.0 °F 89% 30.01 in 10.0 mi SSE 6.9 mph - N/A   Clear
3:55 AM 35.2 °F 30.3 °F 32.0 °F 88% 30.00 in 10.0 mi South 5.8 mph - N/A   Clear
4:15 AM 34.9 °F 29.9 °F 32.0 °F 89% 30.00 in 10.0 mi SSE 5.8 mph - N/A   Clear
4:35 AM 34.9 °F - 32.0 °F 89% 29.99 in 10.0 mi Calm Calm - N/A   Clear
4:55 AM 35.1 °F 29.3 °F 32.2 °F 89% 30.00 in 10.0 mi SSE 6.9 mph - N/A   Clear
5:15 AM 35.8 °F 30.1 °F 32.7 °F 89% 30.01 in 10.0 mi South 6.9 mph - N/A   Clear
5:35 AM 35.8 °F 30.1 °F 32.9 °F 89% 30.01 in 10.0 mi SSE 6.9 mph - N/A   Clear
5:55 AM 36.7 °F 32.0 °F 33.8 °F 89% 30.00 in 10.0 mi SSE 5.8 mph - N/A   Clear
6:15 AM 37.2 °F 32.6 °F 34.0 °F 88% 30.00 in 10.0 mi SSE 5.8 mph - N/A   Clear
6:35 AM 37.9 °F 32.7 °F 34.7 °F 88% 30.00 in 10.0 mi SSE 6.9 mph - N/A   Scattered Clouds
6:55 AM 37.9 °F 32.1 °F 34.7 °F 88% 30.00 in 10.0 mi SSE 8.1 mph - N/A   Clear
7:15 AM 37.8 °F 32.5 °F 34.3 °F 87% 29.99 in 10.0 mi SSE 6.9 mph - N/A   Clear
7:35 AM 37.2 °F 31.2 °F 33.8 °F 87% 30.00 in 10.0 mi SSE 8.1 mph - N/A   Clear
7:55 AM 37.0 °F 31.0 °F 33.8 °F 88% 30.00 in 10.0 mi SSE 8.1 mph - N/A   Clear
8:15 AM 36.9 °F 29.6 °F 33.4 °F 87% 30.00 in 10.0 mi South 10.4 mph - N/A   Clear
8:35 AM 38.3 °F 30.5 °F 34.2 °F 85% 30.00 in 10.0 mi South 12.7 mph - N/A   Clear
8:55 AM 39.6 °F 32.5 °F 34.9 °F 83% 30.00 in 10.0 mi South 11.5 mph - N/A   Clear
9:15 AM 42.1 °F 36.1 °F 36.1 °F 79% 30.00 in 10.0 mi South 10.4 mph - N/A   Clear
9:35 AM 44.8 °F 39.9 °F 37.6 °F 76% 29.99 in 10.0 mi SSW 9.2 mph - N/A   Clear
9:55 AM 46.8 °F - 37.9 °F 71% 29.99 in 10.0 mi SSW 12.7 mph - N/A   Clear
10:15 AM 48.4 °F - 38.3 °F 68% 29.98 in 10.0 mi South 12.7 mph - N/A   Clear
10:35 AM 50.4 °F - 38.7 °F 64% 29.99 in 10.0 mi South 12.7 mph - N/A   Clear
10:55 AM 52.0 °F - 38.8 °F 61% 29.98 in 10.0 mi South 12.7 mph - N/A   Clear
11:15 AM 52.9 °F - 38.7 °F 58% 29.98 in 10.0 mi South 15.0 mph - N/A   Clear
11:35 AM 53.8 °F - 38.5 °F 56% 29.97 in 10.0 mi South 16.1 mph - N/A   Clear
11:55 AM 55.0 °F - 38.7 °F 54% 29.96 in 10.0 mi South 16.1 mph - N/A   Clear
12:15 PM 57.0 °F - 39.0 °F 51% 29.95 in 10.0 mi South 12.7 mph - N/A   Clear
12:35 PM 59.0 °F - 39.2 °F 48% 29.94 in 10.0 mi South 13.8 mph - N/A   Clear
12:55 PM 59.7 °F - 39.2 °F 47% 29.93 in 10.0 mi South 12.7 mph - N/A   Clear
1:15 PM 60.1 °F - 38.5 °F 45% 29.93 in 10.0 mi South 15.0 mph 20.7 mph N/A   Clear
1:35 PM 60.3 °F - 38.5 °F 44% 29.92 in 10.0 mi South 18.4 mph 23.0 mph N/A   Clear
1:55 PM 61.2 °F - 37.8 °F 42% 29.91 in 10.0 mi South 15.0 mph 18.4 mph N/A   Clear
2:15 PM 62.1 °F - 37.4 °F 40% 29.90 in 10.0 mi South 13.8 mph 21.9 mph N/A   Clear
2:35 PM 62.4 °F - 36.7 °F 38% 29.89 in 10.0 mi South 16.1 mph - N/A   Clear
2:55 PM 63.1 °F - 36.7 °F 37% 29.89 in 10.0 mi South 15.0 mph 20.7 mph N/A   Clear
3:15 PM 63.5 °F - 37.4 °F 38% 29.89 in 10.0 mi South 17.3 mph 23.0 mph N/A   Clear
3:35 PM 63.0 °F - 37.9 °F 40% 29.90 in 10.0 mi South 18.4 mph 24.2 mph N/A   Clear
3:55 PM 62.1 °F - 37.4 °F 40% 29.90 in 10.0 mi South 16.1 mph 24.2 mph N/A   Clear
4:15 PM 61.0 °F - 37.4 °F 42% 29.91 in 10.0 mi South 17.3 mph 20.7 mph N/A   Clear
4:35 PM 59.4 °F - 37.4 °F 44% 29.91 in 10.0 mi South 15.0 mph - N/A   Clear
4:55 PM 57.7 °F - 37.0 °F 46% 29.92 in 10.0 mi South 13.8 mph 23.0 mph N/A   Clear
5:15 PM 55.2 °F - 36.5 °F 49% 29.93 in 10.0 mi South 9.2 mph - N/A   Clear
5:35 PM 53.4 °F - 36.0 °F 52% 29.93 in 10.0 mi South 12.7 mph - N/A   Clear
5:55 PM 52.7 °F - 35.6 °F 52% 29.93 in 10.0 mi South 8.1 mph - N/A   Clear
6:15 PM 50.7 °F - 35.6 °F 56% 29.95 in 10.0 mi South 10.4 mph - N/A   Clear
6:35 PM 50.2 °F - 35.6 °F 57% 29.94 in 10.0 mi South 12.7 mph - N/A   Clear
6:55 PM 50.2 °F - 35.6 °F 57% 29.95 in 10.0 mi South 12.7 mph - N/A   Clear
7:15 PM 49.6 °F - 35.6 °F 59% 29.95 in 10.0 mi South 11.5 mph - N/A   Clear
7:35 PM 47.7 °F - 35.2 °F 62% 29.95 in 10.0 mi South 8.1 mph - N/A   Clear
7:55 PM 46.4 °F 41.9 °F 35.6 °F 66% 29.95 in 10.0 mi South 9.2 mph - N/A   Clear
8:15 PM 46.0 °F 41.0 °F 35.1 °F 66% 29.93 in 10.0 mi South 10.4 mph - N/A   Clear
8:35 PM 45.3 °F 41.6 °F 35.1 °F 67% 29.94 in 10.0 mi South 6.9 mph - N/A   Clear
8:55 PM 44.2 °F 39.7 °F 34.9 °F 70% 29.94 in 10.0 mi South 8.1 mph - N/A   Clear
9:15 PM 43.5 °F 38.3 °F 35.1 °F 72% 29.93 in 10.0 mi South 9.2 mph - N/A   Clear
9:35 PM 42.3 °F 37.9 °F 34.9 °F 75% 29.94 in 10.0 mi South 6.9 mph - N/A   Clear
9:55 PM 42.1 °F 36.6 °F 35.4 °F 77% 29.93 in 10.0 mi South 9.2 mph - N/A   Clear
10:15 PM 42.8 °F 38.0 °F 35.6 °F 76% 29.93 in 10.0 mi South 8.1 mph - N/A   Clear
10:35 PM 41.9 °F 36.9 °F 35.6 °F 78% 29.93 in 10.0 mi South 8.1 mph - N/A   Clear
10:55 PM 40.1 °F 34.7 °F 34.7 °F 81% 29.94 in 10.0 mi SSW 8.1 mph - N/A   Clear
11:15 PM 40.5 °F 35.1 °F 35.1 °F 81% 29.93 in 10.0 mi South 8.1 mph - N/A   Clear
11:35 PM 41.0 °F 35.2 °F 35.6 °F 81% 29.93 in 10.0 mi South 9.2 mph - N/A   Clear
11:55 PM 40.5 °F 34.6 °F 35.4 °F 82% 29.93 in 10.0 mi South 9.2 mph - N/A   Clear